Regional Weather Roundup
Issued by NWS

Home | Current Version | Previous Version | Graphics & Text | Print | Product List | Glossary Off
Versions: 1 2 3 4 5 6 7 8 9 10 11 12 13 14 15 16 17 18 19 20 21 22 23 24 25 26 27 28 29 30 31 32 33 34 35 36 37 38 39 40 41 42 43 44 45 46 47 48 49 50

000
ASUS45 KBOU 310907
RWRCO

WEATHER ROUNDUP FOR COLORADO
NATIONAL WEATHER SERVICE DENVER/BOULDER CO
300 AM MDT MON AUG 31 2015

NOTE: "FAIR" INDICATES FEW OR NO CLOUDS BELOW 12000 FEET WITH NO
SIGNIFICANT WEATHER AND/OR OBSTRUCTIONS TO VISIBILITY.

COZ001>005-013-030-031-311000-
...NORTHWEST COLORADO...

CITY           SKY/WX    TMP DP  RH WIND       PRES   REMARKS
CRAIG          CLOUDY    60  49  66 E12       30.21S
HAYDEN         NOT AVBL
MEEKER         NOT AVBL
MOUNT WERNER   NOT AVBL
STEAMBOAT SPGS CLOUDY    53  51  92 N3        30.26R
WALDEN         CLOUDY    52  46  82 SW7       30.31R
$$

COZ006>008-011-311000-
...WEST CENTRAL VALLEYS...

CITY           SKY/WX    TMP DP  RH WIND       PRES   REMARKS
GRAND JUNCTION CLOUDY    62  59  90 E9        30.12F
MONTROSE       MOCLDY    59  57  93 S7        30.21F
EAGLE          CLOUDY    57  55  94 E6        30.28F
RIFLE          CLOUDY    59  56  89 NW3       30.20F
DELTA          RAIN      64  58  82 NE6       30.17F
NUCLA          MOCLDY    64  50  59 SE7       30.20F
$$

COZ017>023-064>068-311000-
...SOUTHWEST COLORADO...

CITY           SKY/WX    TMP DP  RH WIND       PRES   REMARKS
DURANGO        MOCLDY    59  48  67 CALM      30.22F
CORTEZ         CLEAR     59  52  77 CALM      30.19S
PAGOSA SPRINGS MOCLDY    60  46  59 CALM      30.29F
TELLURIDE      CLOUDY    56  47  71 SE3       30.40F
WOLF CREEK PAS CLOUDY    43  39  87 SW9       30.59F
$$

COZ009-010-012-014-032>034-037-058>063-311000-
...CENTRAL COLORADO...

CITY           SKY/WX    TMP DP  RH WIND       PRES   REMARKS
ASPEN          LGT RAIN  54  51  90 S6        30.35S
BUENA VISTA    MOCLDY    63  42  45 NW18      30.28S
COPPER MTN     CLOUDY    46  41  81 S13       30.58F
BERTHOUD PASS  HAZE      37  27  65 N15G29    30.60S VSB<1/4
COTTONWOOD PAS MOCLDY    59  37  44 W15G25    30.40F
GUNNISON       MOCLDY    54  48  82 CALM      30.33S
KREMMLING      CLOUDY    55  46  71 S5        30.32S
LEADVILLE      CLOUDY    49  45  86 N5        30.42F
MONARCH PASS   MOCLDY    43  39  87 W21       30.65F
SALIDA         MOCLDY    66  43  43 W7        30.32S
SUNLIGHT       DRIZZLE   46  45  93 CALM      30.52S
WILKERSON PASS CLOUDY    52  34  50 W7G17     30.52F
$$

COZ069>075-311000-
...SAN LUIS VALLEY/SANGRE DE CRISTO MOUNTAINS...

CITY           SKY/WX    TMP DP  RH WIND       PRES   REMARKS
ALAMOSA        CLOUDY    55  42  61 NE5       30.25S
LA VETA PASS   CLEAR     54  41  62 MISG      30.40F
SAGUACHE       MOCLDY    59  43  55 NW10      30.29S
$$

COZ035-036-038>040-311000-
...NORTHERN COLORADO FRONT RANGE...

CITY           SKY/WX    TMP DP  RH WIND       PRES   REMARKS
DENVER INTL AP CLOUDY    71  45  39 W14       30.02R
DMNS CITY PARK   N/A     71  44  37 NE3G14    30.01S
AURORA         MOCLDY    70  45  40 NW9       30.05R
FRONT RANGE AP NOT AVBL
ERIE MUNI ARPT CLOUDY    66  46  49 CALM      30.00F
BOULDER MUN AP CLOUDY    72  46  40 CALM      30.01S
CENTENNIAL     MOCLDY    70  44  39 NW5       30.06R
BROOMFIELD     CLOUDY    73  43  33 W22G28    30.04F
FORT COLLINS   CLOUDY    70  52  52 CALM      30.00S
LONGMONT       CLOUDY    70  50  49 CALM      30.01F
$$

COZ041-046-047-076>085-087-088-311000-
...PIKES PEAK/PALMER DIVIDE AND SOUTHERN FOOTHILLS...

CITY           SKY/WX    TMP DP  RH WIND       PRES   REMARKS
COLO. SPRINGS  PTCLDY    65  47  52 N9        30.07F
A. F. ACADEMY  PTCLDY    62  44  51 N5        30.09F
ELLICOTT       NOT AVBL
FALCON         PTCLDY    65  43  44 MISG      30.12F
FORT CARSON    MOCLDY    63  47  55 N6        30.03F
LIMON          PTCLDY    52  47  83 CALM      30.03S
MONUMENT HILL  MOCLDY    59  41  51 W9        30.14S
TRINIDAD       CLEAR     68  49  50 W3        30.06R
$$

COZ042>045-048>051-090-091-311000-
...NORTHEAST COLORADO...

CITY           SKY/WX    TMP DP  RH WIND       PRES   REMARKS
GREELEY ARPT   CLOUDY    68  48  49 W5        29.98S
AKRON          PTCLDY    68  47  46 SW12      29.97S
BURLINGTON     CLEAR     61  49  64 S14       29.97F
WRAY           CLEAR     69  47  44 S6        29.93S
STERLING       PTCLDY    63  52  67 S6        29.92F
HOLYOKE        CLEAR     63  45  51 W3        29.95R
FORT MORGAN    PTCLDY    66  50  56 CALM      29.96S
$$

COZ086-089-092>099-311000-
...SOUTHEAST COLORADO...

CITY           SKY/WX    TMP DP  RH WIND       PRES   REMARKS
PUEBLO         CLEAR     65  48  54 W3        29.96S
LA JUNTA       CLEAR     69  51  52 E7        29.93S
LAMAR          CLEAR     59  51  75 E9        29.91F HAZE
SPRINGFIELD      N/A     60  49  66 S7        29.98
$$




USA.gov is the U.S. government's official web portal to all federal, state and local government web resources and services.